SCP
0 0 -0 -0 0 0 0 0 0 0 0 0 0 0 0 0 0 0 0 -0 0 -0 -0 0 0 0 0 0 0 0 0 0 0 0 0 0 0 0 0 0 0 0 0
0 0 -0 -0 -0 0 0 0 0 0 0 0 0 0 0 0 0 0 0 0 0 0 -0 -0 -0 0 0 -0 -0 0 0 0 0 0 0 0 0 0 0 0 0 0 0
0 0 0 0 0 0 0 0 -0 0 0 0 0 0 0 0 0 0 0 0 0 0 0 0 0 0 0 0 0 0 0 0 0 0 0 0 0 0 0 0 0 0 0
0 0 0 0 0 0 -0 -0 -0 -0 -0 0 0 0 0 0 0 0 0 0 0 0 0 0 0 0 0 0 0 0 0 0 0 0 0 0 0 0 0 0 0 0 0
0 0 0 0 -0 -0 -0 -0 -0 -0 0 0 0 0 0 0 0 0 0 0 0 0 0 0 0 0 0 0 0 0 0 0 0 0 0 0 0 0 0 0 0 0 0
0 0 0 -0 -0 -0 -0 -0 -0 0 0 0 0 0 0 0 0 0 0 0 0 0 0 0 0 0 0 0 0 0 0 0 0 0 0 0 0 0 -0 0 0 0 0
0 0 0 -0 -0 -0 -0 0 0 0 0 0 0 0 0 0 0 0 0 0 0 0 0 0 0 0 0 0 0 0 0 0 0 0 0 0 0 -0 -0 0 0 0 0
0 0 0 -0 -0 -0 0 0 0 0 0 0 0 0 0 0 0 0 0 0 0 0 0 0 0 0 0 0 0 0 0 0 0 0 0 0 0 0 0 0 0 0 0
0 0 0 0 0 0 0 0 0 0 0 0 0 0 0 0 0 0 0 0 0 0 0 0 0 0 0 0 -0 0 0 0 0 0 0 0 0 0 0 0 0 0 0
0 0 0 0 0 0 0 0 0 0 0 0 0 0 0 0 0 0 0 0 0 0 0 0 0 0 0 0 0 0 0 0 0 0 0 0 0 0 0 0 0 0 0
0 0 0 0 0 0 0 0 0 0 0 0 0 0 0 0 0 0 0 0 0 0 0 0 0 0 0 0 0 0 0 0 0 0 0 0 0 0 0 0 0 0 0
0 0 0 0 0 0 0 0 0 0 0 0 0 0 0 0 0 0 0 0 0 0 0 0 0 0 0 0 0 0 0 0 0 0 0 0 0 0 0 0 0 0 1
-0 0 0 0 0 0 0 0 0 0 0 0 0 0 0 0 0 0 0 0 0 0 0 0 0 0 0 0 0 0 0 0 0 0 0 0 0 0 0 0 0 0 0
0 0 0 0 0 0 0 0 0 0 0 0 0 0 0 0 0 0 0 0 0 0 0 0 0 0 0 0 0 0 0 0 0 0 0 0 0 0 0 0 0 0 0
0 0 0 0 0 0 0 0 0 0 0 0 0 0 0 0 0 0 0 0 0 0 0 0 0 0 0 0 0 0 0 0 0 0 0 0 0 0 0 0 0 0 0
0 0 0 0 0 0 0 0 0 0 0 0 0 0 0 0 0 0 0 0 0 0 0 0 0 0 0 0 0 0 0 0 0 0 0 0 0 0 0 0 0 0 0
0 0 0 0 0 0 0 0 0 0 0 0 0 0 0 0 0 0 0 0 0 0 0 0 0 0 0 0 0 0 0 0 0 0 0 0 0 0 0 0 0 0 0
0 0 0 0 0 0 0 0 0 0 0 0 0 0 0 0 0 0 0 0 0 0 0 0 0 0 0 0 0 0 0 0 0 0 0 0 0 0 0 0 0 0 0
0 0 0 0 0 0 0 0 0 0 0 0 0 0 0 0 0 0 0 0 0 0 0 0 0 0 0 0 0 0 0 0 0 0 0 0 0 0 0 0 0 0 0
0 0 0 0 0 0 0 0 0 0 0 0 0 0 0 0 0 0 0 0 0 0 0 0 0 0 0 0 0 0 0 0 0 0 0 0 0 0 0 0 0 0 0
0 0 0 0 0 0 0 0 0 0 0 0 0 0 0 0 0 0 0 0 0 0 0 0 0 0 0 0 0 0 0 0 0 0 0 0 0 0 0 0 0 0 0
0 0 0 0 0 0 0 0 0 0 0 0 0 0 0 0 0 0 0 0 0 0 0 0 0 0 0 0 0 0 0 0 0 0 0 0 0 0 0 0 0 0 0
0 0 0 0 0 0 0 0 0 0 0 0 0 0 0 0 0 0 0 0 0 0 0 0 0 0 0 0 0 0 0 0 0 0 0 0 0 0 0 0 0 0 0
0 0 0 0 0 0 0 0 0 0 0 0 0 0 0 0 0 0 0 0 0 0 0 0 0 0 0 0 0 0 0 0 0 0 0 0 0 0 0 0 0 0 0
0 0 0 0 0 0 0 0 0 0 0 0 0 0 0 0 0 0 0 0 0 0 0 0 0 0 0 0 0 0 0 0 0 0 0 0 0 0 0 0 0 0 0
0 0 0 0 0 0 0 0 0 0 0 0 0 0 0 0 0 0 0 0 0 0 0 0 0 0 0 0 0 0 0 0 0 0 0 0 0 0 0 0 0 0 0
Wind_Speed_500mb
25 20 18 16 14 11 10 9 9 7 6 5 4 4 5 5 6 8 8 8 10 9 8 5 7 7 9 10 7 7 7 6 9 13 18 19 14 11 11 12 16 22 19
29 25 22 18 14 12 9 8 10 10 9 6 7 9 10 11 10 9 9 9 10 10 9 8 8 7 10 8 8 10 10 11 12 15 18 18 20 21 16 15 15 19 20
30 26 23 20 15 12 9 10 9 9 7 7 8 9 12 13 13 12 12 12 12 13 13 13 11 11 13 13 13 13 12 13 13 16 20 22 28 31 30 25 21 23 25
27 23 21 19 16 16 15 12 12 11 11 9 10 11 14 15 12 11 13 15 15 17 18 18 18 17 16 15 18 20 23 22 23 24 29 36 36 30 32 33 30 32 28
26 22 20 19 17 16 15 15 15 14 14 14 16 18 20 20 18 19 20 18 17 20 20 21 23 25 25 22 22 28 31 32 31 33 35 34 27 24 32 40 39 38 32
25 22 21 21 22 21 20 18 18 17 16 17 19 22 21 19 19 22 25 24 22 24 27 27 26 25 29 31 33 33 34 36 38 38 36 32 27 27 30 40 43 46 39
23 20 19 21 23 25 24 22 19 18 17 18 19 18 19 20 22 24 26 24 27 29 30 31 33 36 36 36 37 40 41 41 43 43 41 38 33 31 35 39 45 44 44
19 14 13 10 9 8 8 9 11 11 11 10 9 10 12 14 15 16 18 21 24 27 30 33 35 36 38 38 40 45 46 46 49 50 47 44 42 36 43 44 53 49 52
19 15 12 11 12 16 16 15 13 10 7 4 3 4 6 7 9 11 12 15 17 18 20 21 25 30 34 37 40 42 46 49 51 55 56 55 50 47 43 50 54 58 59
22 19 17 15 15 15 14 12 10 8 5 4 5 6 8 8 9 12 14 16 17 18 19 19 21 22 26 31 35 40 46 50 52 57 59 61 59 54 53 53 59 60 58
25 21 19 17 16 15 12 10 7 4 5 2 4 7 9 11 11 13 14 16 16 18 19 20 21 22 25 28 31 34 38 42 49 54 55 60 62 61 59 61 64 66 58
29 25 21 17 13 11 9 6 3 2 4 6 7 9 10 12 14 14 15 17 19 21 23 25 27 28 29 31 33 36 39 41 44 48 53 54 57 58 60 61 66 71 66
28 28 25 20 15 10 7 5 2 3 4 6 7 9 11 13 15 17 18 20 22 24 26 28 30 33 35 39 39 39 41 43 45 48 52 55 52 55 60 61 67 70 74
35 29 26 21 16 14 13 9 4 1 5 9 12 13 14 17 18 20 22 25 27 30 32 33 35 37 38 40 41 43 44 46 48 52 53 54 58 63 61 66 72 77 80
39 35 30 24 22 20 15 10 4 1 6 11 15 18 18 20 22 25 28 31 35 36 39 41 43 46 48 49 49 49 48 48 49 53 57 57 57 62 75 74 70 75 82
48 43 34 28 26 22 17 10 4 4 9 13 16 18 19 22 24 27 30 32 36 39 40 44 47 49 52 55 57 59 61 62 62 61 61 64 63 64 66 73 81 86 78
57 48 41 34 30 24 19 13 8 7 10 15 18 20 22 23 27 31 34 36 39 41 43 46 48 51 53 56 60 63 65 65 67 68 70 70 72 72 71 72 76 82 93
59 53 45 41 34 31 24 17 11 10 12 16 17 20 23 25 30 32 35 37 40 42 45 47 51 55 59 61 65 65 67 67 68 69 72 73 74 74 73 73 75 78 82
63 55 54 46 40 35 29 20 13 13 14 17 20 22 24 26 29 34 36 39 40 42 44 47 50 55 59 63 68 70 71 72 73 72 72 65 63 63 65 68 72 75 79
62 59 55 50 45 41 34 25 18 15 16 20 24 25 26 26 31 34 37 39 40 42 44 47 50 51 57 64 69 71 71 73 63 74 65 59 58 60 61 59 61 64 72
64 63 62 58 52 49 41 30 23 17 17 22 26 25 24 29 33 37 38 39 39 41 44 47 50 52 52 58 73 83 83 71 82 48 61 70 68 63 62 58 61 62 64
76 71 67 61 55 51 43 34 24 20 19 21 26 25 28 31 35 37 37 38 39 39 41 44 47 52 52 54 65 67 50 88 43 61 85 65 67 79 74 75 64 63 69
82 78 73 64 57 53 48 41 30 25 22 22 27 27 29 32 36 36 36 37 38 40 41 41 42 46 54 54 53 42 28 30 90 73 88 85 59 63 81 87 77 76 70
79 76 73 63 59 57 53 45 35 30 28 23 27 29 29 33 35 35 35 36 36 38 37 37 40 45 51 58 60 58 48 58 54 84 102 53 83 70 80 68 81 77 75
75 74 68 64 62 63 57 48 42 37 32 27 29 31 31 34 33 33 33 34 35 35 35 38 41 44 50 59 62 68 65 61 65 70 103 109 83 74 72 70 84 91 74
73 69 63 63 67 65 60 52 48 41 35 31 30 30 31 33 32 32 32 33 33 32 34 37 43 50 55 63 68 70 67 66 70 72 81 109 103 88 75 82 80 82 77
Wind_Direction_500mb
176 184 185 185 163 164 183 202 212 218 227 232 260 281 298 330 349 8 5 1 359 1 352 332 317 320 325 324 298 219 217 260 285 285 281 272 259 271 294 299 278 260 250
185 181 186 193 181 180 183 197 212 223 232 245 270 284 288 294 307 317 326 333 333 337 342 340 312 305 297 284 266 271 276 274 291 303 300 297 288 287 281 291 291 275 248
191 179 190 198 199 196 192 200 198 211 229 245 263 286 298 292 293 298 303 297 304 310 314 321 320 295 289 277 253 257 272 284 297 304 304 301 296 287 286 281 284 285 268
186 179 192 204 218 226 227 230 229 231 241 260 278 287 288 298 305 310 326 321 309 304 300 295 298 302 300 284 261 253 272 269 275 280 284 291 288 281 279 274 278 278 278
185 190 199 209 217 223 228 231 243 257 266 266 274 288 293 291 280 289 297 300 299 305 307 301 291 288 291 288 272 265 271 272 277 280 283 287 276 273 268 273 274 271 272
191 199 208 223 236 242 241 240 243 251 258 265 273 283 287 285 282 286 294 294 292 284 288 290 292 287 282 287 287 279 275 274 276 280 284 285 271 261 266 269 271 269 268
196 204 226 245 253 252 245 241 243 248 257 264 268 275 278 276 278 284 288 289 285 283 283 282 281 283 284 284 282 281 279 277 277 278 281 279 278 258 262 263 266 264 262
208 219 229 236 235 216 207 212 225 236 246 260 276 283 284 286 290 292 292 287 283 281 280 279 279 280 281 279 278 280 280 278 277 279 279 280 279 270 253 250 259 262 263
208 204 190 167 136 120 119 119 121 119 105 78 29 350 336 321 322 322 318 313 308 305 302 299 292 287 283 279 278 278 276 274 274 275 278 278 275 271 263 254 258 261 262
201 198 186 169 154 144 134 128 119 109 100 63 19 357 355 347 342 338 339 332 330 322 316 311 305 298 294 291 284 277 272 272 275 274 273 275 276 273 266 257 265 267 270
202 190 179 171 158 146 142 127 112 106 76 45 15 3 349 340 341 336 332 327 322 317 316 315 311 307 300 296 293 290 285 280 276 273 268 273 275 273 265 264 260 266 272
201 191 182 176 167 169 151 137 147 76 20 12 2 351 337 330 326 323 318 316 316 319 319 317 317 316 310 305 301 297 294 288 282 278 274 271 270 273 269 263 262 263 267
201 197 190 187 181 183 191 196 196 50 3 360 344 346 336 327 327 323 322 323 325 321 321 321 320 316 312 309 306 302 298 295 291 284 278 274 269 271 271 268 264 261 262
207 204 198 194 197 200 206 209 209 6 356 340 343 342 338 332 331 330 333 333 331 331 328 327 322 319 316 314 310 307 303 300 296 291 285 278 272 262 260 260 261 260 260
215 211 208 200 207 202 210 210 191 329 347 342 338 334 335 335 335 339 338 338 335 332 331 326 325 324 321 318 315 312 307 301 295 292 291 287 278 269 263 261 257 258 260
216 219 214 209 209 205 207 203 222 323 339 334 329 327 331 333 335 336 336 333 330 329 327 326 326 324 322 320 317 314 312 310 307 303 298 292 286 278 270 265 258 253 256
218 221 216 212 211 208 204 206 241 290 330 331 324 326 328 332 333 335 334 332 328 326 326 327 326 323 320 318 316 313 312 311 310 307 303 298 294 289 282 273 266 259 254
220 220 216 213 210 211 204 215 245 288 319 321 320 324 322 330 331 331 328 326 325 326 328 328 327 325 323 322 318 316 315 314 312 309 305 303 301 296 290 282 272 266 261
220 220 217 213 213 210 210 222 245 277 300 311 310 319 325 325 327 326 326 326 326 329 330 327 327 325 325 324 321 321 320 320 317 313 311 310 304 300 294 289 279 270 264
223 221 219 216 213 210 214 223 241 267 290 306 314 317 320 323 323 324 326 327 329 331 329 326 327 329 331 328 324 322 324 324 325 320 318 317 314 311 307 293 287 283 274
223 221 218 215 211 213 214 222 237 263 290 312 311 308 314 315 323 327 325 327 329 329 329 329 330 332 337 333 331 329 328 328 326 321 317 315 304 302 299 293 284 280 279
223 220 219 218 214 216 217 229 240 260 281 304 309 305 308 321 323 321 323 326 327 328 330 332 335 336 337 337 333 334 328 327 325 306 304 300 284 292 283 279 281 283 278
221 220 220 220 217 218 220 227 236 251 268 298 313 307 311 314 318 319 321 325 327 329 332 335 337 334 330 334 332 319 322 305 318 320 304 303 304 295 290 292 282 270 268
221 221 223 223 220 221 224 230 238 249 261 290 307 306 305 312 315 317 319 321 324 324 329 332 333 332 328 327 327 320 299 285 296 306 309 297 293 295 297 292 292 286 278
221 219 224 226 225 226 227 230 237 245 256 279 301 307 306 309 312 313 315 318 319 323 328 329 329 329 327 322 319 316 311 295 287 280 290 300 297 294 290 289 287 286 282
216 219 222 223 225 228 232 233 238 246 254 274 295 304 302 307 310 312 314 314 318 322 325 327 326 326 326 322 320 317 310 300 294 289 284 290 294 295 296 293 290 283 285
Wind_Speed_850mb
25 20 18 16 14 11 10 9 9 7 6 5 4 4 5 5 6 8 8 8 10 9 8 5 7 7 9 10 7 7 7 6 9 13 18 19 14 11 11 12 16 22 19
29 25 22 18 14 12 9 8 10 10 9 6 7 9 10 11 10 9 9 9 10 10 9 8 8 7 10 8 8 10 10 11 12 15 18 18 20 21 16 15 15 19 20
30 26 23 20 15 12 9 10 9 9 7 7 8 9 12 13 13 12 12 12 12 13 13 13 11 11 13 13 13 13 12 13 13 16 20 22 28 31 30 25 21 23 25
27 23 21 19 16 16 15 12 12 11 11 9 10 11 14 15 12 11 13 15 15 17 18 18 18 17 16 15 18 20 23 22 23 24 29 36 36 30 32 33 30 32 28
26 22 20 19 17 16 15 15 15 14 14 14 16 18 20 20 18 19 20 18 17 20 20 21 23 25 25 22 22 28 31 32 31 33 35 34 27 24 32 40 39 38 32
25 22 21 21 22 21 20 18 18 17 16 17 19 22 21 19 19 22 25 24 22 24 27 27 26 25 29 31 33 33 34 36 38 38 36 32 27 27 30 40 43 46 39
23 20 19 21 23 25 24 22 19 18 17 18 19 18 19 20 22 24 26 24 27 29 30 31 33 36 36 36 37 40 41 41 43 43 41 38 33 31 35 39 45 44 44
19 14 13 10 9 8 8 9 11 11 11 10 9 10 12 14 15 16 18 21 24 27 30 33 35 36 38 38 40 45 46 46 49 50 47 44 42 36 43 44 53 49 52
19 15 12 11 12 16 16 15 13 10 7 4 3 4 6 7 9 11 12 15 17 18 20 21 25 30 34 37 40 42 46 49 51 55 56 55 50 47 43 50 54 58 59
22 19 17 15 15 15 14 12 10 8 5 4 5 6 8 8 9 12 14 16 17 18 19 19 21 22 26 31 35 40 46 50 52 57 59 61 59 54 53 53 59 60 58
25 21 19 17 16 15 12 10 7 4 5 2 4 7 9 11 11 13 14 16 16 18 19 20 21 22 25 28 31 34 38 42 49 54 55 60 62 61 59 61 64 66 58
29 25 21 17 13 11 9 6 3 2 4 6 7 9 10 12 14 14 15 17 19 21 23 25 27 28 29 31 33 36 39 41 44 48 53 54 57 58 60 61 66 71 66
28 28 25 20 15 10 7 5 2 3 4 6 7 9 11 13 15 17 18 20 22 24 26 28 30 33 35 39 39 39 41 43 45 48 52 55 52 55 60 61 67 70 74
35 29 26 21 16 14 13 9 4 1 5 9 12 13 14 17 18 20 22 25 27 30 32 33 35 37 38 40 41 43 44 46 48 52 53 54 58 63 61 66 72 77 80
39 35 30 24 22 20 15 10 4 1 6 11 15 18 18 20 22 25 28 31 35 36 39 41 43 46 48 49 49 49 48 48 49 53 57 57 57 62 75 74 70 75 82
48 43 34 28 26 22 17 10 4 4 9 13 16 18 19 22 24 27 30 32 36 39 40 44 47 49 52 55 57 59 61 62 62 61 61 64 63 64 66 73 81 86 78
57 48 41 34 30 24 19 13 8 7 10 15 18 20 22 23 27 31 34 36 39 41 43 46 48 51 53 56 60 63 65 65 67 68 70 70 72 72 71 72 76 82 93
59 53 45 41 34 31 24 17 11 10 12 16 17 20 23 25 30 32 35 37 40 42 45 47 51 55 59 61 65 65 67 67 68 69 72 73 74 74 73 73 75 78 82
63 55 54 46 40 35 29 20 13 13 14 17 20 22 24 26 29 34 36 39 40 42 44 47 50 55 59 63 68 70 71 72 73 72 72 65 63 63 65 68 72 75 79
62 59 55 50 45 41 34 25 18 15 16 20 24 25 26 26 31 34 37 39 40 42 44 47 50 51 57 64 69 71 71 73 63 74 65 59 58 60 61 59 61 64 72
64 63 62 58 52 49 41 30 23 17 17 22 26 25 24 29 33 37 38 39 39 41 44 47 50 52 52 58 73 83 83 71 82 48 61 70 68 63 62 58 61 62 64
76 71 67 61 55 51 43 34 24 20 19 21 26 25 28 31 35 37 37 38 39 39 41 44 47 52 52 54 65 67 50 88 43 61 85 65 67 79 74 75 64 63 69
82 78 73 64 57 53 48 41 30 25 22 22 27 27 29 32 36 36 36 37 38 40 41 41 42 46 54 54 53 42 28 30 90 73 88 85 59 63 81 87 77 76 70
79 76 73 63 59 57 53 45 35 30 28 23 27 29 29 33 35 35 35 36 36 38 37 37 40 45 51 58 60 58 48 58 54 84 102 53 83 70 80 68 81 77 75
75 74 68 64 62 63 57 48 42 37 32 27 29 31 31 34 33 33 33 34 35 35 35 38 41 44 50 59 62 68 65 61 65 70 103 109 83 74 72 70 84 91 74
73 69 63 63 67 65 60 52 48 41 35 31 30 30 31 33 32 32 32 33 33 32 34 37 43 50 55 63 68 70 67 66 70 72 81 109 103 88 75 82 80 82 77
Wind_Direction_850mb
176 184 185 185 163 164 183 202 212 218 227 232 260 281 298 330 349 8 5 1 359 1 352 332 317 320 325 324 298 219 217 260 285 285 281 272 259 271 294 299 278 260 250
185 181 186 193 181 180 183 197 212 223 232 245 270 284 288 294 307 317 326 333 333 337 342 340 312 305 297 284 266 271 276 274 291 303 300 297 288 287 281 291 291 275 248
191 179 190 198 199 196 192 200 198 211 229 245 263 286 298 292 293 298 303 297 304 310 314 321 320 295 289 277 253 257 272 284 297 304 304 301 296 287 286 281 284 285 268
186 179 192 204 218 226 227 230 229 231 241 260 278 287 288 298 305 310 326 321 309 304 300 295 298 302 300 284 261 253 272 269 275 280 284 291 288 281 279 274 278 278 278
185 190 199 209 217 223 228 231 243 257 266 266 274 288 293 291 280 289 297 300 299 305 307 301 291 288 291 288 272 265 271 272 277 280 283 287 276 273 268 273 274 271 272
191 199 208 223 236 242 241 240 243 251 258 265 273 283 287 285 282 286 294 294 292 284 288 290 292 287 282 287 287 279 275 274 276 280 284 285 271 261 266 269 271 269 268
196 204 226 245 253 252 245 241 243 248 257 264 268 275 278 276 278 284 288 289 285 283 283 282 281 283 284 284 282 281 279 277 277 278 281 279 278 258 262 263 266 264 262
208 219 229 236 235 216 207 212 225 236 246 260 276 283 284 286 290 292 292 287 283 281 280 279 279 280 281 279 278 280 280 278 277 279 279 280 279 270 253 250 259 262 263
208 204 190 167 136 120 119 119 121 119 105 78 29 350 336 321 322 322 318 313 308 305 302 299 292 287 283 279 278 278 276 274 274 275 278 278 275 271 263 254 258 261 262
201 198 186 169 154 144 134 128 119 109 100 63 19 357 355 347 342 338 339 332 330 322 316 311 305 298 294 291 284 277 272 272 275 274 273 275 276 273 266 257 265 267 270
202 190 179 171 158 146 142 127 112 106 76 45 15 3 349 340 341 336 332 327 322 317 316 315 311 307 300 296 293 290 285 280 276 273 268 273 275 273 265 264 260 266 272
201 191 182 176 167 169 151 137 147 76 20 12 2 351 337 330 326 323 318 316 316 319 319 317 317 316 310 305 301 297 294 288 282 278 274 271 270 273 269 263 262 263 267
201 197 190 187 181 183 191 196 196 50 3 360 344 346 336 327 327 323 322 323 325 321 321 321 320 316 312 309 306 302 298 295 291 284 278 274 269 271 271 268 264 261 262
207 204 198 194 197 200 206 209 209 6 356 340 343 342 338 332 331 330 333 333 331 331 328 327 322 319 316 314 310 307 303 300 296 291 285 278 272 262 260 260 261 260 260
215 211 208 200 207 202 210 210 191 329 347 342 338 334 335 335 335 339 338 338 335 332 331 326 325 324 321 318 315 312 307 301 295 292 291 287 278 269 263 261 257 258 260
216 219 214 209 209 205 207 203 222 323 339 334 329 327 331 333 335 336 336 333 330 329 327 326 326 324 322 320 317 314 312 310 307 303 298 292 286 278 270 265 258 253 256
218 221 216 212 211 208 204 206 241 290 330 331 324 326 328 332 333 335 334 332 328 326 326 327 326 323 320 318 316 313 312 311 310 307 303 298 294 289 282 273 266 259 254
220 220 216 213 210 211 204 215 245 288 319 321 320 324 322 330 331 331 328 326 325 326 328 328 327 325 323 322 318 316 315 314 312 309 305 303 301 296 290 282 272 266 261
220 220 217 213 213 210 210 222 245 277 300 311 310 319 325 325 327 326 326 326 326 329 330 327 327 325 325 324 321 321 320 320 317 313 311 310 304 300 294 289 279 270 264
223 221 219 216 213 210 214 223 241 267 290 306 314 317 320 323 323 324 326 327 329 331 329 326 327 329 331 328 324 322 324 324 325 320 318 317 314 311 307 293 287 283 274
223 221 218 215 211 213 214 222 237 263 290 312 311 308 314 315 323 327 325 327 329 329 329 329 330 332 337 333 331 329 328 328 326 321 317 315 304 302 299 293 284 280 279
223 220 219 218 214 216 217 229 240 260 281 304 309 305 308 321 323 321 323 326 327 328 330 332 335 336 337 337 333 334 328 327 325 306 304 300 284 292 283 279 281 283 278
221 220 220 220 217 218 220 227 236 251 268 298 313 307 311 314 318 319 321 325 327 329 332 335 337 334 330 334 332 319 322 305 318 320 304 303 304 295 290 292 282 270 268
221 221 223 223 220 221 224 230 238 249 261 290 307 306 305 312 315 317 319 321 324 324 329 332 333 332 328 327 327 320 299 285 296 306 309 297 293 295 297 292 292 286 278
221 219 224 226 225 226 227 230 237 245 256 279 301 307 306 309 312 313 315 318 319 323 328 329 329 329 327 322 319 316 311 295 287 280 290 300 297 294 290 289 287 286 282
216 219 222 223 225 228 232 233 238 246 254 274 295 304 302 307 310 312 314 314 318 322 325 327 326 326 326 322 320 317 310 300 294 289 284 290 294 295 296 293 290 283 285